Regional Weather Roundup
Issued by NWS Upton, NY

Home | Current Version | Previous Version | Text Only | Print | Product List | Glossary On
Versions: 1 2 3 4 5 6 7 8 9 10 11 12 13 14 15 16 17 18 19 20 21 22 23 24 25 26 27 28 29 30 31 32 33 34 35 36 37 38 39 40 41 42 43 44 45 46 47 48 49 50
000
ASUS41 KOKX 211005
RWROKX

REGIONAL WEATHER ROUNDUP
NATIONAL WEATHER SERVICE NEW YORK NY
500 AM EST SUN DEC 21 2014

NOTE: "FAIR" INDICATES FEW OR NO CLOUDS BELOW 12,000 FEET WITH NO
SIGNIFICANT WEATHER AND/OR OBSTRUCTIONS TO VISIBILITY.

NYZ071-072-176-178-NJZ106-104-211100-
NEW YORK CITY METRO AREA


CITY           SKY/WX    TMP DP  RH WIND       PRES   REMARKS
CENTRAL PARK   CLOUDY    31  23  72 N3        30.29F
LAGUARDIA APRT CLOUDY    32  24  72 NW6       30.27F WCI  26
KENNEDY INTL   CLOUDY    34  23  64 N7        30.29S WCI  28
NEWARK/LIBERTY CLOUDY    32  23  69 NW6       30.28F WCI  26
BRNX BOT. GARD   N/A    N/A N/A N/A W5        30.28F
TETERBORO      CLOUDY    31  25  78 N5        30.27F WCI  26
$$

NYZ177-179-078>081-211100-
LONG ISLAND NEW YORK

CITY           SKY/WX    TMP DP  RH WIND       PRES   REMARKS
FARMINGDALE    CLOUDY    33  24  69 NW5       30.27S WCI  29
ISLIP          CLOUDY    33  25  72 W7        30.25S WCI  27
SHIRLEY        CLOUDY    33  27  78 W8        30.27S WCI  26
WESTHAMPTON    LGT SNOW  33  28  81 CALM      30.27S
MONTAUK POINT    N/A     39  36  89 NE8       30.23S WCI  33
$$

NYZ052-065-067-211100-
HUDSON VALLEY

CITY           SKY/WX    TMP DP  RH WIND       PRES   REMARKS
WHITE PLAINS   CLOUDY    29  24  82 N7        30.24F WCI  22
NEWBURGH       CLOUDY    27  27 100 MISG      30.27F FOG
MONTGOMERY     CLOUDY    28  24  85 N3        30.27F
POUGHKEEPSIE   LGT SNOW  29  24  82 N3        30.28F
ALBANY         FLURRIES  28  20  71 CALM      30.31S
$$

NJZ001-105-106-008-010-013-015-019>022-104-211100-
NEW JERSEY

CITY           SKY/WX    TMP DP  RH WIND       PRES   REMARKS
NEWARK/LIBERTY CLOUDY    32  23  69 NW6       30.28F WCI  26
TETERBORO      CLOUDY    31  25  78 N5        30.27F WCI  26
CALDWELL       CLOUDY    30  26  85 CALM      30.28F
MORRISTOWN     CLOUDY    32  27  80 CALM      30.27F
SOMERVILLE     CLOUDY    32  22  66 NW3       30.26F
SUSSEX         CLOUDY    28  26  92 CALM      30.26F FOG
ANDOVER          N/A     28  24  85 NE3       30.26F
TRENTON        CLOUDY    30  22  72 W3        30.28S
MILLVILLE      CLOUDY    29  25  85 CALM      30.29F
ATLANTIC CITY  MOCLDY    28  22  78 CALM      30.29F
WRIGHTSTOWN    CLOUDY    30  23  75 W5        30.26F WCI  25
TOMS RIVER     CLOUDY    28  23  80 W5        30.29S WCI  23
BELMAR         CLOUDY    32  19  59 W5        30.27S WCI  27
$$

PAZ047>061-062-071-211100-
EASTERN PENNSYLVANIA

CITY           SKY/WX    TMP DP  RH WIND       PRES   REMARKS
PHILADELPHIA   CLOUDY    32  22  66 NW6       30.31S WCI  26
ALLENTOWN      CLOUDY    31  21  66 NW5       30.28S WCI  26
SCRANTON       CLOUDY    29  19  66 NW5       30.25S WCI  24
$$

CTZ002-004>006-009-010-012-RIZ004-006-007-MAZ004-011-015-211100-
SOUTHERN NEW ENGLAND
 IN CT

CITY           SKY/WX    TMP DP  RH WIND       PRES   REMARKS
BRADLEY INTL   LGT SNOW  31  28  89 N7        30.26S FOG     WCI  24
HARTFORD       CLOUDY    31  29  92 VRB6      30.28R FOG     WCI  25
DANBURY        CLOUDY    29  23  78 CALM      30.26F HAZE
WTRBRY/OXFORD  CLOUDY    30  23  74 N5        30.24F WCI  25
BRIDGEPORT     CLOUDY    33  29  85 N3        30.27F
MERIDEN        LGT SNOW  32  29  88 N5        30.28R FOG     WCI  27
NEW HAVEN      CLOUDY    35  29  78 N9        30.27R WCI  28
CHESTER        MIX PCPN  32  30  93 N6        30.25R WCI  26
GROTON         LGT SNOW  33  31  92 N6        30.24S FOG     WCI  28
WILLIMANTIC    CLOUDY    33  27  78 N3        30.26S

 IN RI

CITY           SKY/WX    TMP DP  RH WIND       PRES   REMARKS
PROVIDENCE     CLOUDY    33  31  92 N8        30.26S WCI  26
BLOCK ISLAND   CLOUDY    39  34  81 NE12G17   30.22R WCI  32
WESTERLY       CLOUDY    35  32  88 NE7       30.25S WCI  29

 IN MA

CITY           SKY/WX    TMP DP  RH WIND       PRES   REMARKS
BOSTON         FLURRIES  32  28  85 N10       30.29R WCI  24
WORCESTER      CLOUDY    27  25  92 NE9       30.23S WCI  18
WESTFIELD      LGT SNOW  31  28  89 N6        30.27S FOG     WCI  25
PROVINCETOWN   CLOUDY    39  30  70 NE18      30.25F WCI  30
NANTUCKET      CLOUDY    40  32  73 NE7       30.24R
$$

ANZ330-335-338-340-345-350-353-355-211100-
COASTAL MARINE OBSERVATIONS


STATION/POSITION TIME  SKY/WX   TEMP    WIND        PRES    VSBY  WAVE
                                AIR SEA DIR/SP/G                  HT/PER
                 (UTC)          (F)     (DEG/KT/KT) (MB)    (MI)  (FT/S)
NY HARB ENTRANCE 1000            35 47  310/ 10/ 14 1025.1          1/10
4S FIRE IS       1000               45                N/A           1/10
20S FIRE ISLAND  0900            37 49              1025.1          1/ 5
23SW MTP         1000                                 N/A           3/ 5
HUDSON CANYON    1000            40 55  310/ 10/ 12 1023.7          2/ 5
EXECUTION ROCKS  1000            33 41  340/  8/ 12   N/A
WESTERN LI SOUND 1000            33     330/  6/  8   N/A           0
CENTRAL LI SOUND 0900            34 44   10/  8/ 10   N/A           1
EASTERN LI SOUND NOT AVBL
ROBBINS REEF     1000            32        CALM     1024.0
$$


>>>>>>>>>>>>>>>>>>>>>>>>>>>> KEY <<<<<<<<<<<<<<<<<<<<<<<<<<<
>                                                          <
>     SKY/WX - SKY CONDITION/PRESENT WEATHER               <
>     TMP    - TEMPERATURE IN FAHRENHEIT                   <
>     DP     - DEWPOINT IN FAHRENHEIT                      <
>     RH     - RELATIVE HUMIDITY IN PERCENT                <
>     WIND   - DIRECTION AND SPEED IN MPH                  <
>     PRES   - MEAN SEA LEVEL PRESSURE IN INCHES OF HG     <
>     WCI    - WIND CHILL INDEX                            <
>     VSB    - VISIBILITY IN MILES                         <
>     HX     - HEAT INDEX                                  <
>     TC     - TEMPERATURE IN CELSIUS                      <
>     VRB    - VARIABLE WIND DIRECTION                     <
>                                                          <
>>>>>>>>>>>>>>>>>>>>>>>>>>>> KEY <<<<<<<<<<<<<<<<<<<<<<<<<<<





USA.gov is the U.S. government's official web portal to all federal, state and local government web resources and services.